www.pogodaiklimat.ru

Погода и климат >> Архив погоды >> Грузия >> Кутаиси


ПОГОДА в Кутаиси

АРХИВ ПОГОДЫ в Кутаиси

Время (UTC), дата Ветер
(напр.,м/с)
 
Видим.   Явления Облачность Т
(С)
Тd
(С)
f
(%)
Тe
(С)
Тes
(С)
Комфортность P
(гПа)
Po
(гПа)
Тmin
(С)
Tmax
(С)
R
(мм)
R24
(мм)
S
(см)
15 13.07 З 3 20 км 8/4 1000 м
[Sc Ac trans]
+22.0 +14.8 64 +25 +26 комфорт 1012.1 998.8 +22.0
18 13.07 З 2 10 км 6/4 1500 м
[Sc Ac trans]
+19.2 +17.4 89 +22 +22 комфорт 1012.2 998.8 +22.0 16
21 13.07 В 1 10 км 10/4 1500 м
[Sc As op]
+18.2 +16.5 90 +20 +20 прохладно 1011.8 998.4
00 14.07 В 2 н/о н/о +17.5 +17.5 100 +18 +18 прохладно 1011.1 997.3
03 14.07 В 1 20 км 9/4 1500 м
[Sc Ac trans]
+17.8 +16.3 91 +19 +19 прохладно 1011.3 997.8
06 14.07 штиль 0 20 км 6/4 1000 м
[Cu med, cong Ac trans]
+21.8 +16.4 71 +26 +33 душно 1010.6 997.4 +17.4
09 14.07 З 2 20 км 6/4 1000 м
[Cu med, cong Ac trans]
+25.4 +15.5 54 +28 +38 жарко 1009.7 996.7
12 14.07 50 км н/о +27.6 +14.7 45 +30 +38 жарко 1008.0 995.0
15 14.07 штиль 0 50 км 6/0
[Ac trans]
+28.0 +14.4 43 +30 +32 жарко 1006.4 993.4 +28.5
18 14.07 С 1 10 км 3/3 1500 м
[Sc Ac trans]
+22.6 +17.1 71 +27 +27 душно 1006.3 993.2 +28.5
21 14.07 ЮВ 2 н/о {гроза, ливн. осадки} н/о +20.6 +17.8 84 +25 +25 комфорт 1005.9 992.7 0.3
00 15.07 СВ 4 10 км {гроза, ливн. осадки} 8/5 1000 м
[Sc Ac trans]
+20.0 +16.0 78 +23 +23 комфорт 1004.7 991.5
03 15.07 В 6 50 км 3/0
[Ac trans]
+25.8 +14.7 50 +28 +29 жарко 1001.9 988.9
06 15.07 В 13 50 км 3/0
[Ac trans]
+28.8 +14.9 43 +31 +31 жарко 1000.7 987.9 +19.4 2
09 15.07 В 13 50 км 3/0
[Ac trans]
+31.0 +16.2 41 +34 +34 душно 1000.5 987.8
12 15.07 З 6 50 км 8/3 1500 м
[Sc Ac trans]
+28.0 +18.9 58 +33 +35 очень
душно
1002.4 989.6
15 15.07 З 3 20 км 10/6 1000 м
[Sc As op]
+22.8 +18.7 78 +29 +29 очень
душно
1005.5 992.4 +32.0
18 15.07 З 2 10 км {ливн. осадки} 10/6 1000 м
[Sc As op]
+21.0 +18.8 87 +26 +26 душно 1005.9 993.0 +32.0
21 15.07 штиль 0 10 км слаб. ливневой дождь 10/6 1000 м
[Cb cap As op]
+20.0 +18.4 91 +23 +23 комфорт 1008.9 995.7
00 16.07 В 4 н/о {ливн. осадки} н/о +19.2 +19.2 100 +21 +21 комфорт 1008.2 994.5 0.1
03 16.07 В 2 50 км 6/3 1500 м
[Sc Ac trans]
+18.8 +16.4 86 +21 +21 комфорт 1008.2 994.9
06 16.07 штиль 0 50 км 4/3 1500 м
[Cu hum Ac trans]
+24.4 +18.1 68 +29 +38 душно 1007.9 994.9 +18.4 1
09 16.07 З 4 50 км 6/3 1500 м
[Cu hum Ac trans]
+26.8 +16.7 54 +30 +37 душно 1008.7 995.7
12 16.07 З 3 20 км 9/6 1000 м
[Sc Ac trans]
+24.8 +18.9 70 +30 +32 душно 1009.4 996.4
15 16.07 Ю 2 н/о {ливн. осадки} н/о +21.8 +19.3 86 +27 +27 душно 1010.3 997.2 +27.0
18 16.07 СЗ 1 10 км {ливн. осадки} 4/3 1500 м
[Sc Ac trans]
+20.6 +18.5 88 +26 +26 душно 1011.0 997.7 +27.0 2
21 16.07 В 1 10 км 4/0
[Ac trans]
+19.0 +17.7 92 +22 +22 комфорт 1011.2 997.8
00 17.07 В 1 10 км 6/0
[Ac trans]
+18.4 +17.1 92 +20 +20 по сезону 1011.3 997.9
03 17.07 В 1 20 км 6/4 1500 м
[Sc Ac trans]
+19.6 +18.3 92 +23 +24 комфорт 1008.9 995.6
06 17.07 ЮЗ 1 50 км 6/3 1500 м
[Sc Ac trans]
+23.0 +18.2 74 +29 +35 очень
душно
1008.0 994.9 +18.4
09 17.07 ЮЗ 1 50 км 4/3 1500 м
[Sc Ac trans]
+26.0 +18.0 61 +30 +45 душно 1006.5 993.5
12 17.07 З 2 50 км 4/3 1500 м
[Sc Ac trans]
+27.6 +16.9 52 +31 +39 душно 1005.4 992.5
15 17.07 З 2 20 км 8/4 1000 м
[Sc Ac trans]
+27.2 +16.6 52 +31 +31 душно 1004.8 991.9 +28.4
18 17.07 З 2 10 км 10/6 1000 м
[Sc As op]
+22.6 +18.3 77 +28 +28 душно 1006.1 993.0 +28.4
21 17.07 В 1 10 км 9/5 1000 м
[Sc Ac trans]
+21.8 +18.7 83 +27 +27 душно 1006.2 993.1
00 18.07 СЗ 2 10 км {ливн. осадки} 6/4 1500 м
[Sc Ac trans]
+20.2 +18.0 87 +24 +24 комфорт 1005.4 992.2
03 18.07 штиль 0 20 км 8/4 1000 м
[Sc Ac trans]
+20.6 +18.9 90 +24 +25 комфорт 1005.7 992.5
06 18.07 штиль 0 20 км 6/4 1500 м
[Cu hum Ac trans]
+24.6 +18.7 70 +29 +37 душно 1005.8 992.8 +19.6 0.0
09 18.07 ЮЗ 2 20 км 6/0
[Ac trans]
+28.0 +19.2 59 +34 +46 очень
душно
1004.7 991.9
12 18.07 З 4 20 км 10/6 1000 м
[Sc As op]
+26.8 +20.4 68 +33 +34 очень
душно
1005.5 992.5
15 18.07 З 3 10 км гроза, ливневой дождь 10/8 600 м
[Cb cap As op]
+21.2 +18.7 86 +26 +26 душно 1008.9 995.7 +28.8
18 18.07 З 2 10 км {гроза, ливн. осадки} 10/6 1000 м
[Sc As op]
+20.2 +18.8 92 +24 +24 комфорт 1009.2 996.0 +28.8 4
21 18.07 штиль 0 10 км 10/6 1000 м
[Sc As op]
+21.2 +19.6 91 +26 +26 душно 1012.0 998.7
00 19.07 штиль 0 10 км 10/6 1000 м
[Sc As op]
+21.0 +19.2 89 +25 +25 комфорт 1011.9 998.6
03 19.07 штиль 0 20 км 10/6 1000 м
[Sc As op]
+20.8 +19.0 89 +25 +25 комфорт 1012.1 998.8
06 19.07 В 1 20 км 10/6 1000 м
[Sc As op]
+21.4 +19.7 90 +26 +27 душно 1013.2 1000.0 +20.8 1
09 19.07 штиль 0 20 км 10/6 1000 м
[Sc As op]
+23.4 +19.2 77 +30 +32 очень
душно
1013.7 1000.5
12 19.07 ЮЗ 3 20 км 10/6 1000 м
[Sc As op]
+24.4 +19.5 74 +30 +30 очень
душно
1013.4 1000.3
15 19.07 З 2 20 км 10/6 1000 м
[Sc As op]
+23.0 +20.4 85 +30 +30 очень
душно
1014.9 1001.7 +24.8
18 19.07 СЗ 2 10 км 10/6 1000 м
[Sc As op]
+22.0 +20.4 91 +28 +28 душно 1019.9 1002.7 +24.8
21 19.07 СЗ 2 10 км 10/6 1000 м
[Sc As op]
+21.6 +19.9 90 +27 +27 душно 1016.3 1003.0
00 20.07 штиль 0 10 км 10/6 1000 м
[Sc As op]
+21.4 +19.7 90 +26 +26 душно 1016.6 1003.2
03 20.07 штиль 0 4000 м дымка 10/6 1000 м
[Sc As op]
+21.8 +20.1 90 +27 +28 душно 1016.4 1003.1
06 20.07 штиль 0 20 км 10/6 1000 м
[Sc As op]
+22.4 +20.1 87 +29 +30 очень
душно
1016.8 1003.5 +21.4
09 20.07 З 1 20 км 10/6 1000 м
[Sc As op]
+25.6 +20.6 74 +32 +34 очень
душно
1016.0 1002.9
12 20.07 З 2 20 км 10/6 1000 м
[Sc As op]
+27.0 +20.3 67 +33 +34 очень
душно
1015.0 1002.0

 

Местоположение метеостанции Кутаиси (Грузия): широта 42.27 долгота 42.63 высота над уровнем моря 116 м.

В архиве по умолчанию представлена погода в Кутаиси за последнюю неделю. Архивные данные за месяц целиком и за предыдущие месяцы, начиная с января 2011 года, Вы можете получить, выбрав интересующий диапазон дат из раскрывающегося списка и нажав кнопку "Ввод!".


*Определитесь, кто Вы:
робот инопланетянин человек

Внимание! Время в таблицах - всемирное. Для получения местного времени необходимо прибавить поправку, которая равна 4 ч.

Смотрите также архив погоды в соседних городах и на ближайших метеорологических станциях:

Погода в Сакаре (Грузия) (36 км)
Погода в Амролаури (Грузия) (51 км)
Погода в Зугдиди (Грузия) (67 км)
Погода в Аспиндзе (Грузия) (93 км)
Погода в Чегете (Кабардино-Балкария, Россия) (107 км)
Погода в Терсколе (Кабардино-Балкария, Россия) (109 км)
Погода в Батуми (Грузия) (112 км)
Погода на Леднике Гарабаши (Карачаево-Черкессия, Россия) (112 км)
Погода на Клухорском Перевале (Карачаево-Черкессия, Россия) (118 км)
Погода в Наре (Северная Осетия, Россия) (121 км)

Пояснения к столбцам:

Ветер - указаны скорость ветра в м/с - средняя за 10 мин, порывы в срок и между сроками (в фигурных скобках) и направление, откуда дует ветер: С - северный, СВ - северо-восточный, В - восточный, ЮВ - юго-восточный, Ю - южный, ЮЗ - юго-западный, З - западный, СЗ - северо-западный.
Видимость - горизонтальная дальность видимости в метрах или километрах. При видимости от 1 до 10 км при отсутствии осадков обычно наблюдается дымка, при ухудшении видимости до 1 км и менее - туман. В сухую погоду видимость может ухудшаться дымом, пылью или мглою.
Явления - указаны атмосферные явления, наблюдавшиеся в срок или в последний час перед сроком; фигурными скобками обозначены явления, наблюдавшиеся между сроками (за 1-3 часа до срока); квадратными скобками обозначены град или гололедные отложения с указанием их диаметра в мм.
Облачность - указаны через наклонную черту общая и нижняя облачность в баллах и высота нижней границы облаков в метрах; квадратными скобками обозначены формы облаков: Ci - перистые, Cs - перисто-слоистые, Cc - перисто-кучевые, Ac - высококучевые, As - высокослоистые, Sc - слоисто-кучевые, Ns - слоисто-дождевые, Cu - кучевые, Cb - кучево-дождевые. Подробнее классификацию облаков см. в Атласе облаков (PDF).
T - Температура воздуха - температура, измеренная на высоте 2 м над землей.
Td - Температура точки росы - температура, при понижении до которой содержащийся в воздухе водяной пар достигнет насыщения.
f - Относительная влажность воздуха - влажноcть воздуха, измеренная на высоте 2 м над землей.
Te - Эффективная температура - температура, которую ощущает одетый по сезону человек в тени. Характеристика душности погоды. При расчете учитывается влияние влажности воздуха и скорости ветра на теплоощущения человека.
Tes - Эффективная температура на солнце - температура, которую ощущает человек, с поправкой на солнечный нагрев. Характеристика знойности погоды. Зависит от высоты солнца над горизонтом, облачности и скорости ветра. Ночью, в пасмурную погоду, а также при ветре 12 м/с и более поправка равна нулю.
P - Атмосферное давление - приведенное к уровню моря атмосферное давление.
Po - Атмосферное давление - измеренное на уровне метеостанции атмосферное давление.
Tmin - Минимальная температура - минимум температуры воздуха на высоте 2 м над землей.
Tmax - Максимальная температура - максимум температуры воздуха на высоте 2 м над землей.
R - Количество осадков - Количество выпавших осадков за период времени, мм. При наведении курсора мыши на число - период времени, за который выпало указанное количество осадков.
R24 - Количество осадков - Количество выпавших осадков за 24 часа, мм.
S - Снежный покров - Высота снежного покрова, см. При наведении курсора мыши на число - состояние снежного покрова и степень покрытия местности в баллах.